[[{"header":{"parameterUnit":"m.s-1","parameterCategory":1,"la1":30.2991,"la2":30.254,"lo1":-89.0895,"lo2":-89.0444,"dy":0.0017,"dx":0.0017,"nx":28,"ny":28,"refTime":"2024-12-06T03:00:00:Z","depth":0,"parameterNumber":2,"parameterNumberName":"U-component_of_WINDS"},"data":[0,0,0,0,0,0,0,0,0,0,0,0,0,0,0,0,0,0,0,0,0,0,0,0,0,0,0,0,0,0,0,0,0,0,0,0,0,0,0,0,0,0,0,0,0,0,0,0,0,0,0,0,0,0,0,0,0,0,-1.0338,-1.0338,0,-1.0393,-1.0394,-1.0394,-1.0358,-1.0356,-1.0354,-1.0353,-1.0411,-1.0414,-1.0418,0,0,0,0,0,0,0,0,0,0,0,0,0,-1.0201,-1.0204,-1.0338,-1.0338,-1.0339,-1.0393,-1.0394,-1.0394,-1.0358,-1.0356,-1.0354,-1.0352,-1.041,-1.0414,-1.0418,0,0,0,0,0,0,0,0,0,0,0,0,0,-1.0259,-1.0205,-1.0337,-1.0327,-1.0327,-1.0393,-1.0394,-1.0395,-1.0358,-1.0356,-1.0353,-1.0351,-1.0409,-1.0414,-1.0418,-1.0498,0,0,-1.0433,-1.0435,0,0,0,0,0,0,0,0,-1.0256,-1.0264,-1.0328,-1.0328,-1.0328,-1.0366,-1.0367,-1.0429,-1.0359,-1.0347,-1.0353,-1.035,-1.0398,-1.0404,-1.042,-1.0501,-1.0503,-1.0433,-1.0436,-1.0438,-1.0439,0,0,0,0,0,0,0,-1.0252,-1.0261,-1.0359,-1.0329,-1.0329,-1.032,-1.0326,-1.0379,-1.0386,-1.0347,-1.0345,-1.0352,-1.0398,-1.0415,-1.0421,-1.0504,-1.0433,-1.0437,-1.044,-1.0442,-1.0652,-1.0655,0,0,0,0,0,0,-1.0248,-1.0258,-1.0358,-1.0361,-1.0285,-1.0325,-1.0331,-1.0356,-1.0385,-1.0387,-1.0354,-1.035,-1.0409,-1.0415,-1.0423,-1.0518,-1.0438,-1.0442,-1.0445,-1.0649,-1.0653,-1.0656,0,0,0,0,0,0,-1.0246,-1.0258,-1.0355,-1.0309,-1.0321,-1.033,-1.0359,-1.0359,-1.0376,-1.039,-1.0391,-1.037,-1.0407,-1.0416,-1.0479,-1.0519,-1.0444,-1.0449,-1.0646,-1.065,-1.0654,-1.0708,0,0,0,0,0,0,-1.0242,-1.0257,-1.0287,-1.031,-1.0323,-1.0411,-1.0361,-1.0361,-1.0384,-1.0379,-1.0406,-1.0408,-1.0406,-1.0472,-1.0484,-1.0524,-1.0452,-1.0642,-1.0648,-1.0653,-1.0703,-1.0714,-1.0723,0,0,0,0,0,-1.0237,-1.0301,-1.0289,-1.0301,-1.0361,-1.0413,-1.0421,-1.0416,-1.0387,-1.0418,-1.0427,-1.0407,-1.0513,-1.0479,-1.0492,-1.0534,-1.064,-1.0646,-1.0652,-1.0699,-1.0712,-1.0723,0,0,0,0,0,0,-1.0284,-1.0304,-1.0291,-1.0364,-1.0387,-1.0407,-1.0446,-1.0431,-1.0463,-1.0458,-1.0451,-1.0457,-1.0523,-1.0535,-1.0497,-1.0612,-1.0572,-1.0581,-1.0603,-1.0615,-1.0625,-1.0622,-1.0456,0,0,0,0,0,-1.0302,-1.0342,-1.0358,-1.0421,-1.0433,-1.0437,-1.046,-1.0454,-1.0478,-1.0488,-1.0501,-1.0526,-1.0564,-1.059,-1.0627,-1.0704,-1.0709,-1.0739,-1.0749,-1.0757,-1.0766,-1.0807,-1.0821,-1.0676,-1.0676,-1.0676,0,0,-1.0342,-1.0357,-1.0383,-1.043,-1.0448,-1.049,-1.0446,-1.0492,-1.0524,-1.0495,-1.0556,-1.0566,-1.0593,-1.0663,-1.0695,-1.0675,-1.0807,-1.0765,-1.0772,-1.0776,-1.0815,-1.0829,-1.0841,-1.068,-1.0679,-1.0679,0,0,-1.0435,-1.045,-1.0504,-1.0522,-1.0549,-1.0551,-1.0564,-1.0586,-1.0592,-1.0651,-1.0631,-1.0668,-1.0734,-1.0754,-1.0773,-1.0871,-1.0855,-1.0883,-1.0936,-1.0977,-1.0988,-1.0998,-1.1034,-1.1047,-1.0891,-1.0891,-1.0891,0,-1.0481,-1.0543,-1.0534,-1.0582,-1.0603,-1.0578,-1.0633,-1.065,-1.0688,-1.0703,-1.068,-1.0762,-1.0779,-1.0853,-1.0877,-1.0893,-1.0907,-1.0881,-1.0987,-1.0997,-1.1006,-1.104,-1.1054,-1.0895,-1.0894,-1.0894,-1.0894,0,-1.0598,-1.0641,-1.0681,-1.0717,-1.0742,-1.0793,-1.0793,-1.082,-1.0811,-1.0816,-1.0877,-1.0895,-1.0934,-1.0951,-1.0944,-1.1024,-1.1011,-1.0988,-1.0947,-1.1024,-1.1055,-1.1068,-1.09,-1.0898,-1.0897,-1.0897,0,0,-1.0724,-1.0753,-1.0768,-1.0783,-1.081,-1.0843,-1.0892,-1.093,-1.0953,-1.0979,-1.1021,-1.1076,-1.1054,-1.1076,-1.107,-1.1105,-1.1182,-1.1077,-1.1078,-1.1097,-1.1272,-1.1291,-1.1306,-1.117,-1.1173,-1.1175,-1.127,0,-1.0819,-1.0905,-1.0898,-1.098,-1.1019,-1.0995,-1.1038,-1.1059,-1.1064,-1.1098,-1.1104,-1.1144,-1.1111,-1.1124,-1.1158,-1.1166,-1.1217,-1.1158,-1.1209,-1.1211,-1.1205,-1.1322,-1.1342,-1.1432,-1.1283,-1.1285,-1.1286,0,-1.0942,-1.0971,-1.1057,-1.1076,-1.1092,-1.1131,-1.1164,-1.1197,-1.122,-1.1221,-1.1244,-1.1232,-1.1281,-1.1238,-1.1307,-1.1267,-1.1287,-1.1293,-1.1297,-1.1303,-1.1255,-1.1332,-1.146,-1.1474,-1.1306,-1.1304,-1.1303,0,-1.1027,-1.1087,-1.1146,-1.1159,-1.1183,-1.1211,-1.1222,-1.1242,-1.1265,-1.1294,-1.1308,-1.1343,-1.1362,-1.1389,-1.1386,-1.1355,-1.1456,-1.1413,-1.1459,-1.1459,-1.1483,-1.1482,-1.1617,-1.1494,-1.1494,-1.1493,-1.1493,0,-1.1134,-1.1188,-1.1184,-1.122,-1.1279,-1.127,-1.1328,-1.1336,-1.1354,-1.1391,-1.1372,-1.1407,-1.1401,-1.1436,-1.1434,-1.1491,-1.15,-1.1502,-1.1501,-1.1505,-1.1505,-1.1519,-1.1513,-1.1497,-1.1496,-1.1495,-1.1495,0,-1.124,-1.1239,-1.1301,-1.1318,-1.1323,-1.1366,-1.138,-1.1414,-1.1417,-1.1464,-1.1475,-1.1479,-1.152,-1.1519,-1.1565,-1.1564,-1.1634,-1.1625,-1.1626,-1.1625,-1.1672,-1.1668,-1.1822,-1.1842,-1.1705,-1.1706,-1.1707,0,-1.1309,-1.1349,-1.137,-1.1393,-1.1406,-1.1443,-1.1466,-1.1458,-1.1483,-1.151,-1.1541,-1.158,-1.161,-1.1676,-1.1684,-1.1719,-1.1711,-1.1763,-1.1717,-1.1718,-1.1713,-1.1711,-1.1715,-1.1773,-1.1774,-1.1775,-1.1776,0,-1.1433,-1.143,-1.1463,-1.1496,-1.1523,-1.1548,-1.1572,-1.1592,-1.1586,-1.1615,-1.1655,-1.1679,-1.1725,-1.1764,-1.1797,-1.1809,-1.1792,-1.179,-1.1803,-1.1808,-1.1807,-1.1809,-1.1652,-1.1787,-1.1786,-1.1785,-1.1785,-1.1784,-1.1523,-1.1557,-1.1576,-1.1614,-1.163,-1.1652,-1.1685,-1.169,-1.1724,-1.1761,-1.1754,-1.18,-1.182,-1.1863,-1.1877,-1.1913,-1.1895,-1.1913,-1.1918,-1.1923,-1.1928,-1.18,-1.1919,-1.1919,-1.1918,-1.1918,-1.1918,0,-1.1646,-1.1657,-1.1691,-1.1723,-1.1753,-1.1732,-1.1757,-1.1783,-1.1823,-1.1843,-1.1873,-1.1919,-1.1956,-1.1965,-1.2001,-1.2027,-1.2021,-1.2037,-1.2036,-1.2039,-1.1942,-1.1928,-1.2042,-1.2042,-1.2042,-1.2042,-1.2042,-1.2042,-1.1713,-1.177,-1.177,-1.1834,-1.1845,-1.1889,-1.1904,-1.1924,-1.194,-1.1993,-1.2023,-1.2028,-1.2044,-1.208,-1.2113,-1.2114,-1.2129,-1.2149,-1.2147,-1.2058,-1.2045,-1.2034,-1.202,-1.2152,-1.2152,-1.2241,-1.2242,-1.2242]},{"header":{"parameterUnit":"m.s-1","parameterCategory":1,"la1":30.2991,"la2":30.254,"lo1":-89.0895,"lo2":-89.0444,"dy":0.0017,"dx":0.0017,"nx":28,"ny":28,"refTime":"2024-12-06T03:00:00:Z","depth":0,"parameterNumber":3,"parameterNumberName":"V-component_of_WINDS"},"data":[0,0,0,0,0,0,0,0,0,0,0,0,0,0,0,0,0,0,0,0,0,0,0,0,0,0,0,0,0,0,0,0,0,0,0,0,0,0,0,0,0,0,0,0,0,0,0,0,0,0,0,0,0,0,0,0,0,0,-6.1164,-6.1165,0,-6.1273,-6.1274,-6.1275,-6.1188,-6.1185,-6.1181,-6.1178,-6.1285,-6.1291,-6.1297,0,0,0,0,0,0,0,0,0,0,0,0,0,-6.0874,-6.088,-6.1164,-6.1165,-6.1166,-6.1273,-6.1274,-6.1276,-6.1189,-6.1185,-6.118,-6.1176,-6.1283,-6.129,-6.1298,0,0,0,0,0,0,0,0,0,0,0,0,0,-6.0993,-6.0882,-6.1163,-6.1136,-6.1135,-6.1272,-6.1274,-6.1276,-6.119,-6.1185,-6.1179,-6.1174,-6.128,-6.1289,-6.1299,-6.1468,0,0,-6.1328,-6.1332,0,0,0,0,0,0,0,0,-6.0987,-6.1004,-6.1139,-6.1138,-6.1137,-6.1212,-6.1211,-6.134,-6.1191,-6.1169,-6.1178,-6.1171,-6.1265,-6.1275,-6.1307,-6.1473,-6.1477,-6.1328,-6.1334,-6.1338,-6.1341,0,0,0,0,0,0,0,-6.0978,-6.0999,-6.1207,-6.1141,-6.114,-6.1116,-6.1127,-6.1235,-6.1246,-6.117,-6.1164,-6.1179,-6.1263,-6.1299,-6.1309,-6.1479,-6.1328,-6.1337,-6.1342,-6.1346,-6.1786,-6.1792,0,0,0,0,0,0,-6.0974,-6.0992,-6.1203,-6.121,-6.1047,-6.1126,-6.1138,-6.1193,-6.1245,-6.1248,-6.1183,-6.1174,-6.1285,-6.1298,-6.1313,-6.1513,-6.1338,-6.1347,-6.1352,-6.178,-6.1788,-6.1794,0,0,0,0,0,0,-6.0968,-6.0993,-6.1199,-6.11,-6.1124,-6.1137,-6.1199,-6.1198,-6.1234,-6.1255,-6.1256,-6.1218,-6.1281,-6.1299,-6.143,-6.1516,-6.1351,-6.136,-6.1773,-6.1782,-6.1791,-6.1916,0,0,0,0,0,0,-6.096,-6.0992,-6.1058,-6.1102,-6.113,-6.1316,-6.1205,-6.1204,-6.1251,-6.124,-6.1288,-6.129,-6.1278,-6.1416,-6.1439,-6.1526,-6.1367,-6.1765,-6.1777,-6.1788,-6.1904,-6.1928,-6.1948,0,0,0,0,0,-6.095,-6.1088,-6.1061,-6.1087,-6.1213,-6.1321,-6.1337,-6.1322,-6.1258,-6.1323,-6.1337,-6.1289,-6.1503,-6.143,-6.1455,-6.1546,-6.176,-6.1774,-6.1787,-6.1894,-6.1923,-6.1948,0,0,0,0,0,0,-6.1052,-6.1093,-6.1064,-6.1221,-6.1269,-6.1306,-6.1388,-6.1354,-6.1419,-6.1406,-6.1383,-6.1394,-6.1531,-6.1551,-6.147,-6.1711,-6.1621,-6.164,-6.1693,-6.1721,-6.1743,-6.1735,-6.1375,0,0,0,0,0,-6.1093,-6.1179,-6.121,-6.1345,-6.137,-6.1376,-6.1422,-6.1407,-6.1454,-6.1474,-6.1496,-6.1543,-6.162,-6.1672,-6.1744,-6.1906,-6.1914,-6.1981,-6.2003,-6.2021,-6.2038,-6.2123,-6.2153,-6.1839,-6.1839,-6.1838,0,0,-6.1177,-6.1211,-6.1267,-6.1366,-6.1401,-6.149,-6.1393,-6.1491,-6.1556,-6.1488,-6.1613,-6.1631,-6.1681,-6.1828,-6.1894,-6.1849,-6.2126,-6.2038,-6.2053,-6.206,-6.2141,-6.217,-6.2197,-6.1848,-6.1846,-6.1845,0,0,-6.1377,-6.1412,-6.1528,-6.1565,-6.162,-6.1622,-6.165,-6.1694,-6.1704,-6.1829,-6.1779,-6.1855,-6.1989,-6.2027,-6.2064,-6.2277,-6.2235,-6.2301,-6.2417,-6.2501,-6.2525,-6.2547,-6.2622,-6.2649,-6.2317,-6.2318,-6.2318,0,-6.1476,-6.1609,-6.1591,-6.1693,-6.1738,-6.1682,-6.1798,-6.1834,-6.1909,-6.194,-6.1889,-6.2056,-6.2086,-6.224,-6.2292,-6.2324,-6.2353,-6.2295,-6.2523,-6.2545,-6.2565,-6.2636,-6.2665,-6.2325,-6.2325,-6.2324,-6.2323,0,-6.1726,-6.1819,-6.1906,-6.1981,-6.2035,-6.2144,-6.2141,-6.2197,-6.2177,-6.2184,-6.2311,-6.2345,-6.2423,-6.2458,-6.2439,-6.2609,-6.258,-6.2527,-6.2435,-6.2603,-6.267,-6.2697,-6.2336,-6.2334,-6.2331,-6.2329,0,0,-6.1994,-6.2058,-6.209,-6.2123,-6.2179,-6.2249,-6.2354,-6.2432,-6.248,-6.2533,-6.2619,-6.2734,-6.2685,-6.2727,-6.2711,-6.2785,-6.295,-6.2722,-6.2723,-6.2762,-6.3138,-6.3178,-6.321,-6.2922,-6.2927,-6.2931,-6.3134,0,-6.2196,-6.2381,-6.2367,-6.2541,-6.2625,-6.2573,-6.2663,-6.2706,-6.2716,-6.2787,-6.2796,-6.2878,-6.2808,-6.2832,-6.2903,-6.2915,-6.3025,-6.29,-6.3,-6.3004,-6.2989,-6.3245,-6.3287,-6.3477,-6.316,-6.3164,-6.3168,0,-6.2457,-6.252,-6.2702,-6.2744,-6.2779,-6.2862,-6.2931,-6.3001,-6.3047,-6.3049,-6.3095,-6.3067,-6.317,-6.3077,-6.3218,-6.3133,-6.3173,-6.3185,-6.3192,-6.32,-6.3096,-6.3259,-6.3537,-6.3565,-6.3208,-6.3205,-6.3202,0,-6.2633,-6.2763,-6.2889,-6.2919,-6.2972,-6.303,-6.3055,-6.3096,-6.3143,-6.3203,-6.3233,-6.3304,-6.3343,-6.3397,-6.3387,-6.332,-6.3531,-6.3437,-6.3533,-6.3534,-6.358,-6.3577,-6.3867,-6.3607,-6.3607,-6.3606,-6.3605,0,-6.2859,-6.2973,-6.2969,-6.3046,-6.3171,-6.3154,-6.3277,-6.3294,-6.3331,-6.3409,-6.3367,-6.3441,-6.3424,-6.3497,-6.3489,-6.3607,-6.3624,-6.3627,-6.3624,-6.3631,-6.3631,-6.3656,-6.3643,-6.3614,-6.3612,-6.361,-6.3609,0,-6.3077,-6.3079,-6.3213,-6.3252,-6.3264,-6.3354,-6.3386,-6.3458,-6.3463,-6.3563,-6.3585,-6.3593,-6.3676,-6.3672,-6.3766,-6.3761,-6.3906,-6.3887,-6.3891,-6.3886,-6.3983,-6.3974,-6.4299,-6.4341,-6.4055,-6.4057,-6.406,0,-6.3222,-6.3308,-6.3356,-6.3406,-6.3434,-6.3516,-6.3564,-6.3549,-6.3601,-6.366,-6.3724,-6.3804,-6.3867,-6.4002,-6.4016,-6.4087,-6.4069,-6.4178,-6.4079,-6.4083,-6.407,-6.4065,-6.4072,-6.4198,-6.4201,-6.4203,-6.4205,0,-6.3477,-6.3474,-6.3546,-6.3619,-6.3677,-6.3733,-6.3784,-6.3827,-6.3818,-6.3877,-6.3963,-6.4012,-6.4108,-6.4187,-6.4255,-6.4277,-6.424,-6.4237,-6.4263,-6.427,-6.4269,-6.427,-6.3943,-6.4229,-6.4227,-6.4225,-6.4224,-6.4223,-6.3662,-6.3736,-6.3781,-6.3862,-6.39,-6.3948,-6.4018,-6.4032,-6.4104,-6.4182,-6.4168,-6.4264,-6.4306,-6.4394,-6.4423,-6.4496,-6.4457,-6.4495,-6.4504,-6.4514,-6.4524,-6.4258,-6.4508,-6.4507,-6.4507,-6.4506,-6.4506,0,-6.3915,-6.3942,-6.4017,-6.409,-6.4153,-6.4114,-6.4168,-6.4223,-6.4308,-6.4352,-6.4415,-6.4512,-6.4589,-6.4608,-6.4681,-6.4735,-6.472,-6.4755,-6.475,-6.4756,-6.4556,-6.4526,-6.4766,-6.4766,-6.4766,-6.4766,-6.4766,-6.4766,-6.4054,-6.4177,-6.4179,-6.4318,-6.4343,-6.4438,-6.4472,-6.4515,-6.455,-6.4662,-6.4725,-6.4738,-6.4771,-6.4846,-6.4913,-6.4917,-6.4945,-6.4987,-6.4984,-6.4796,-6.477,-6.4745,-6.4717,-6.4994,-6.4994,-6.5177,-6.5179,-6.518]}]]